Patrick AFB, FL

3:48 AM EST on February 21, 2017 (GMT -0500)
Patrick Air Force Base

Weather History for KCOF - August, 2013

Change the Weather History Date:

Tuesday, August 27, 2013

  Actual Average Record
Temperature  
Mean Temperature 84 °F -  
Max Temperature 88 °F 85 °F 97 °F (2011)
Min Temperature 80 °F 75 °F 73 °F (2015)
Cooling Degree Days 18    
Growing Degree Days 34 (Base 50)    
Moisture  
Dew Point 68 °F    
Average Humidity 60    
Maximum Humidity 77    
Minimum Humidity 51    
Precipitation  
Precipitation 0.00 in - - ()
Sea Level Pressure  
Sea Level Pressure 30.05 in    
Wind  
Wind Speed 11 mph (ENE)    
Max Wind Speed 15 mph    
Max Gust Speed -    
Visibility 10 miles    
Events      
Averages and records for this station are not official NWS values.
T = Trace of Precipitation, MM = Missing Value Source: NWS Daily Summary

Daily Weather History Graph

Daily Weather History Graph

Search for Another Location

Airport or City:

Trip Planner

Search our weather history database for the weather conditions in past years. The results will help you decide how hot, cold, wet, or windy it might be!

Date:

Astronomy

Aug. 27, 2013 Rise Set
Actual Time 6:58 AM EDT 7:48 PM EDT
Civil Twilight 6:34 AM EDT 8:12 PM EDT
Nautical Twilight 6:05 AM EDT 8:41 PM EDT
Astronomical Twilight 5:36 AM EDT 9:10 PM EDT
Moon No Moon Rise 1:18 PM EDT (8/27)
Length of Visible Light 13h 38m
Length of Day
12h 50m
Waning Gibbous, 57% of the Moon is Illuminated
Aug 27
Waning Gibbous
Aug 28
Last Quarter
Sep 5
New
Sep 12
First Quarter
Sep 19
Full

Hourly Weather History & Observations

Time (EDT) Temp. Heat Index Dew Point Humidity Pressure Visibility Wind Dir Wind Speed Gust Speed Precip Events Conditions
12:58 AM 80.4 °F 83.6 °F 69.8 °F 70% 30.06 in 10.0 mi ESE 12.7 mph - N/A   Clear
1:58 AM 80.8 °F 84.2 °F 70.3 °F 70% 30.06 in 10.0 mi East 10.4 mph - N/A   Clear
2:58 AM 80.1 °F 83.4 °F 70.9 °F 73% 30.04 in 10.0 mi East 8.1 mph - N/A   Clear
3:58 AM 80.1 °F 84.0 °F 72.1 °F 77% 30.04 in 10.0 mi ENE 8.1 mph - N/A   Scattered Clouds
4:58 AM 80.8 °F 83.9 °F 69.4 °F 68% 30.03 in 10.0 mi ENE 11.5 mph - N/A   Partly Cloudy
5:58 AM 81.0 °F 83.8 °F 68.0 °F 65% 30.04 in 10.0 mi ENE 11.5 mph - N/A   Clear
6:58 AM 81.0 °F 83.4 °F 67.1 °F 63% 30.04 in 10.0 mi ENE 12.7 mph - N/A   Clear
7:58 AM 81.7 °F 84.9 °F 69.1 °F 65% 30.06 in 10.0 mi ENE 11.5 mph - N/A   Clear
8:58 AM 83.5 °F 87.2 °F 69.1 °F 62% 30.06 in 10.0 mi ENE 12.7 mph - N/A   Clear
9:44 AM 84.2 °F 87.3 °F 68.0 °F 58% 30.06 in 10.0 mi ENE 12.7 mph - N/A   Light Drizzle
9:53 AM 84.2 °F 87.3 °F 68.0 °F 58% 30.06 in 10.0 mi ENE 12.7 mph - N/A   Clear
9:58 AM 85.1 °F 87.7 °F 66.9 °F 54% 30.08 in 10.0 mi ENE 13.8 mph - 0.00 in   Clear
10:58 AM 86.4 °F 90.0 °F 68.4 °F 55% 30.09 in 10.0 mi ENE 13.8 mph - N/A   Clear
11:58 AM 87.3 °F 90.9 °F 68.4 °F 53% 30.09 in 10.0 mi East 13.8 mph - N/A   Clear
12:58 PM 87.1 °F 90.2 °F 67.5 °F 52% 30.08 in 10.0 mi East 15.0 mph - N/A   Clear
1:58 PM 87.6 °F 90.8 °F 67.6 °F 51% 30.06 in 10.0 mi East 12.7 mph - N/A   Clear
2:58 PM 87.6 °F 91.1 °F 68.0 °F 52% 30.04 in 10.0 mi ENE 10.4 mph - N/A   Clear
3:58 PM 87.3 °F 90.9 °F 68.0 °F 53% 30.04 in 10.0 mi ENE 9.2 mph - N/A   Clear
4:58 PM 84.7 °F 87.6 °F 67.3 °F 56% 30.04 in 10.0 mi ENE 9.2 mph - N/A   Clear
5:58 PM 84.0 °F 86.8 °F 67.1 °F 57% 30.04 in 10.0 mi NE 12.7 mph - N/A   Clear
6:58 PM 82.6 °F 84.5 °F 65.3 °F 56% 30.04 in 10.0 mi NE 10.4 mph - N/A   Clear
7:58 PM 81.5 °F 83.4 °F 65.7 °F 58% 30.03 in 10.0 mi ENE 8.1 mph - N/A   Clear
8:58 PM 81.0 °F 83.2 °F 66.2 °F 61% 30.04 in 10.0 mi East 10.4 mph - N/A   Clear
9:58 PM 80.8 °F 82.9 °F 66.0 °F 61% 30.06 in 10.0 mi ENE 5.8 mph - N/A   Clear
10:58 PM 80.8 °F 82.9 °F 66.4 °F 61% 30.06 in 10.0 mi NE 9.2 mph - N/A   Clear
11:58 PM 80.2 °F 82.5 °F 66.6 °F 63% 30.06 in 10.0 mi ENE 5.8 mph - N/A   Clear